sat.trackr.live / text

‹ back to catalog

STARLINK-31366

NORAD 59403 · 2024-064F

PAYLOAD ACTIVE UNKNOWN

§ Identity

Operator
Country
US
Launch date
2024-04-05
Launch site
AFETR
Launch vehicle
Mass (kg)
RCS (m²)

Purposes: comms

External: N2YO · Heavens-Above · Gunter

§ Orbital elements

Epoch: 2026-05-24T20:27:06.308640Z

Period
94.27 min
Inclination
43.0006°
Eccentricity
0.0001460
Mean motion
15.27595109 rev/d
Perigee alt
482.0 km
Apogee alt
484.0 km
Semi-major
6,861.1 km
B*
2.8877e-4
RAAN
346.0652°
Arg perigee
268.4165°
Mean anomaly
91.6520°
Rev number
12,087

§ Raw data

STARLINK-313661 59403U 24064F   26144.85215635  .00007696  00000+0  28877-3 0  99912 59403  43.0006 346.0652 0001460 268.4165  91.6520 15.27595109120870

JSON: /api/v1/satellites/59403 · /tle

For live sub-satellite position, see the globe view (requires WebGL).

§ Visibility from observer

Set your observer location to see the next 7 days of passes ≥ 10°. The values pass through the URL so the page stays shareable.

No JS? Fill the form by hand. The geolocation button needs JavaScript.